Regional Weather Roundup
Issued by NWS

Home | Current Version | Previous Version | Graphics & Text | Print | Product List | Glossary On
Versions: 1 2 3 4 5 6 7 8 9 10 11 12 13 14 15 16 17 18 19 20 21 22 23 24 25 26 27 28 29 30 31 32 33 34 35 36 37 38 39 40 41 42 43 44 45 46 47 48 49 50
000
ASUS44 KMEG 200600
RWRTN
TENNESSEE HOURLY STATE WEATHER ROUNDUP
NATIONAL WEATHER SERVICE MEMPHIS TN
100 AM CDT WED AUG 20 2014

TNZ002-004-019-021-049-052-054-088>092-200700-
WEST TENNESSEE

CITY           SKY/WX    TMP DP  RH WIND       PRES   REMARKS
MEMPHIS INTL   FAIR      83  76  79 SW12      29.90F HX  91
NWS MEMPHIS      N/A     84 N/A N/A MISG        N/A
JACKSON        FAIR      79  75  87 SW9       29.89S
DYERSBURG      FAIR      77  66  69 CALM      29.88S
UNION CITY     CLEAR     75  73  94 S3        29.86S
PARIS          CLEAR     73  72  94 SW6       29.89S
LEXINGTON      CLEAR     75  72  88 S3        29.90S
SAVANNAH       MOCLDY    75  75 100 S6        29.92S
$$

TNZ008-025-027-028-033-062-065-066-200700-
NORTH MIDDLE TENNESSEE

CITY           SKY/WX    TMP DP  RH WIND       PRES   REMARKS
NASHVILLE      FAIR      79  72  79 SW5       29.92R
CLARKSVILLE    FAIR      76  71  85 S3        29.89R
COOKEVILLE     PTCLDY    72  72 100 CALM      29.96S
CROSSVILLE     FAIR      71  67  87 CALM      30.01S
$$

TNZ061-075-076-078-094-096-097-200700-
SOUTH MIDDLE TENNESSEE

CITY           SKY/WX    TMP DP  RH WIND       PRES   REMARKS
FAYETTEVILLE   CLEAR     72  72 100 CALM      29.96S
TULLAHOMA      CLEAR     73  72  94 CALM      29.97F
WINCHESTER     CLEAR     72  72 100 CALM      29.97S
COLUMBIA       PTCLDY    77  73  88 S3        29.92R
SHELBYVILLE    CLEAR     75  73  94 S5        29.95S
$$

TNZ017-018-042-046-047-200700-
NORTHEAST TENNESSEE

CITY           SKY/WX    TMP DP  RH WIND       PRES   REMARKS
TRI CITIES     MOCLDY    68  66  93 CALM      29.99R
ELIZABETHTON   PTCLDY    64  64 100 CALM      30.00R FOG
$$

TNZ012-013-036-069-073-074-200700-
CENTRAL EAST TENNESSEE

CITY           SKY/WX    TMP DP  RH WIND       PRES   REMARKS
KNOXVILLE      FAIR      72  70  93 W3        29.96R
OAK RIDGE      FAIR      72  69  90 CALM      29.98R
GATLINBURG     CLEAR     66  64  94 CALM      29.97R
$$

TNZ083-085-099-200700-
SOUTHEAST TENNESSEE

CITY           SKY/WX    TMP DP  RH WIND       PRES   REMARKS
CHATTANOOGA    FAIR      75  71  87 CALM      29.96R
$$

SKY/WX REPORTED AS FAIR MEANS FEW OR NO CLOUDS BELOW
12 THOUSAND FEET.



USA.gov is the U.S. government's official web portal to all federal, state and local government web resources and services.